Regional Weather Roundup
Issued by NWS Northern Indiana

Home | Current Version | Previous Version | Graphics & Text | Print | Product List | Glossary On
Versions: 1 2 3 4 5 6 7 8 9 10 11 12 13 14 15 16 17 18 19 20 21 22 23 24 25 26 27 28 29 30 31 32 33 34 35 36 37 38 39 40 41 42 43 44 45 46 47 48 49 50
000
ASUS43 KIWX 200000
RWRIWX

KIWX WEATHER ROUNDUP
NATIONAL WEATHER SERVICE NORTHERN INDIANA
800 PM EDT FRI SEP 19 2014

NOTE: "FAIR" INDICATES FEW OR NO CLOUDS BELOW 12,000 FEET WITH NO
SIGNIFICANT WEATHER AND/OR OBSTRUCTIONS TO VISIBILITY.

* THESE STATIONS ARE NOT UNDER NWS QUALITY CONTROL. THEY ALSO MAY NOT
  REPORT WEATHER SUCH AS PRECIPITATION OR FOG.

INZ001>027-200100-
NORTHERN INDIANA

CITY           SKY/WX    TMP DP  RH WIND       PRES   REMARKS
GARY*          PTCLDY    68  46  45 S6        30.02F
VALPARAISO     CLEAR     65  46  50 S6        30.04F
6HR MIN TEMP:  65; 6HR MAX TEMP:  74;

SOUTH BEND     CLEAR     65  48  54 S7        30.05F
6HR MIN TEMP:  65; 6HR MAX TEMP:  73;

ELKHART*       CLEAR     64  46  52 S3        30.06F
GOSHEN         CLEAR     63  49  60 SE5       30.06S
6HR MIN TEMP:  63; 6HR MAX TEMP:  72;

ANGOLA*        CLEAR     61  48  63 S5        30.07F
FORT WAYNE     MOCLDY    62  49  62 SE6       30.08F
6HR MIN TEMP:  62; 6HR MAX TEMP:  70;

PERU/GRISSOM   CLEAR     63  51  64 SE6       30.06S
6HR MIN TEMP:  63; 6HR MAX TEMP:  73;


$$
INZ028>050-200100-
CENTRAL INDIANA

CITY           SKY/WX    TMP DP  RH WIND       PRES   REMARKS
LAFAYETTE      CLEAR     66  49  54 CALM      30.05S
6HR MIN TEMP:  66; 6HR MAX TEMP:  73;

KOKOMO*        CLEAR     61  48  63 SE5       30.07S
6HR MIN TEMP:  61; 6HR MAX TEMP:  72;

MUNCIE*        CLEAR     62  50  64 SE3       30.08S
6HR MIN TEMP:  61; 6HR MAX TEMP:  73;

INDIANAPOLIS   PTCLDY    66  49  54 S6        30.07R
6HR MIN TEMP:  66; 6HR MAX TEMP:  73;


$$
MIZ043>046-050>051-056>058-064>065-071>073-077>080-200100-
SOUTHWEST LOWER MICHIGAN

CITY           SKY/WX    TMP DP  RH WIND       PRES   REMARKS
BATTLE CREEK   CLEAR     62  48  60 S7        30.06F
6HR MIN TEMP:  62; 6HR MAX TEMP:  70;

BENTON HARBOR  CLEAR     63  48  58 S5        30.02F
6HR MIN TEMP:  63; 6HR MAX TEMP:  71;

COLDWATER*     CLEAR     62  50  65 CALM      30.07S
6HR MIN TEMP:  62; 6HR MAX TEMP:  70;

HILLSDALE*     CLEAR     60  47  63 CALM      30.08F
6HR MIN TEMP:  60; 6HR MAX TEMP:  70;

HOLLAND        CLEAR     63  52  67 S6        30.03F
6HR MIN TEMP:  63; 6HR MAX TEMP:  72;

GRAND RAPIDS   MOCLDY    63  52  67 S6        30.04S
6HR MIN TEMP:  63; 6HR MAX TEMP:  71;

KALAMAZOO      CLEAR     64  49  57 S8        30.05F
6HR MIN TEMP:  64; 6HR MAX TEMP:  71;

STURGIS*       CLEAR     61  48  63 S5        30.06S
THREE RIVERS*  FAIR      63  50  63 S5        30.06F
6HR MIN TEMP:  63; 6HR MAX TEMP:  70;


$$
OHZ001>008-015>018-024>025-200100-
NORTHWEST OHIO

CITY           SKY/WX    TMP DP  RH WIND       PRES   REMARKS
DEFIANCE       PTCLDY    60  50  69 CALM      30.09S
6HR MIN TEMP:  36; 6HR MAX TEMP:  72;

FINDLAY        CLEAR     64  48  56 S3        30.09S
6HR MIN TEMP:  63; 6HR MAX TEMP:  72;

TOLEDO EXPRESS CLEAR     59  52  77 E5        30.09S
6HR MIN TEMP:  59; 6HR MAX TEMP:  69;

TOLEDO METCALF CLEAR     58  51  78 E5        30.10F
6HR MIN TEMP:  58; 6HR MAX TEMP:  69;

LIMA           CLEAR     60  50  69 CALM      30.09F
6HR MIN TEMP:  59; 6HR MAX TEMP:  73;


$$
&&



USA.gov is the U.S. government's official web portal to all federal, state and local government web resources and services.